User: anonymous   Login
Location: Chiroubles
(46.1812°N, 4.6660°E)
Time: 11:19:24
(UTC+00:00)
Language:

Cosmos 1437 Rocket - Orbit

View from above orbital plane
View from above orbital plane
View from above satellite
View from above satellite

Ground track
Ground track

The orbit data is extracted from the following two-line orbital elements,

1 13771U 83003B   20299.79550042  .00001161  00000-0  67410-4 0  9998
2 13771  81.1712  29.0784 0040684 253.9094 105.7651 15.10682631 58927
Epoch (UTC): 25 October 2020 19:05:31
Eccentricity: 0.0040684
inclination: 81.1712°
perigee height: 506 km
apogee height: 562 km
right ascension of ascending node: 29.0784°
argument of perigee: 253.9094°
revolutions per day: 15.10682631
mean anomaly at epoch: 105.7651°
orbit number at epoch: 5892

The dashed part of the orbit path shows where the satellite is in the earth's shadow,  

DLR